星链-31458 (STARLINK-31458 )

导读

STARLINK-31458是美国太空探索技术公司(SpaceX)星链互联网星座的卫星之一,于北京时间2024年4月13日发射入轨,属于星链低轨卫星组网的组成部分。星链计划旨在为全球提供高速低延迟宽带互联网服务,该卫星的发射助力推进星座覆盖与部署,完善全球卫星互联网服务能力。

基本信息
目录编号:
59501
目录名称:
STARLINK-31458
国际标识:
2024-071T
轨道中心:
EARTH
卫星名称:
星链-31458
卫星全名:
星链-31458 (STARLINK-31458 )
卫星状态:
在轨 (已飞行874 天)
发射日期:
2024-04-13 UTC
国别 :
美国 (US)
星等 :
--
轨道信息
数据来源 国际轨道数据
星历时间: 2026-09-03T20:24:33+0800
1天前
查看轨道信息
半长轴: 6861.202km
偏心率: 0.0000555
轨道倾角: 43.003°
近地点辐角 232.339°
升交点赤经 55.323°
平近点角 127.741°
近地点: 482.684km
远地点: 483.446km
周期: 94.267分钟
每日圈数: 15.275748
详细信息
固有亮度:
5
最大亮度:
1.5
卫星平台:
Starlink v2.0 mini
覆盖范围:
全球
运营商:
太空探索技术公司
运营商所在国:
美国
制造商(研发单位):
太空探索技术公司
制造商所在国:
美国
使用方式:
暂无
卫星简介
星链(Starlink)计划是由太空探索技术公司(SpaceX)提出的一个巨型低轨卫星互联网星座项目,计划在2019年至2024年间在太空搭建由约1.2万颗卫星组成的“星链”网络,其中1584颗将部署在地球上空550千米处的近地轨道,并从2020年开始工作。该卫星仍在工作。
2D轨道图
3D轨道图
轨道高度分析图
轨道倾角分析图
轨道综合分析图
查看轨道综合分析图
交会数据列表
事件ID 空间交会对象 最接近时刻(TCA) 交会距离 交会风险概率(CRP) 交会风险指数(CRI) 操作
CDM_260905-210005-778305-950121
2026-09-05T
21:00:45+0000
0.886 km
远距离
3.067904E-5 中风险 0.65
CDM_260905-223405-778305-950121
2026-09-05T
22:34:54+0000
1.329 km
极远距离
7.603508E-6 低风险 0.53
CDM_260905-192605-778305-950121
2026-09-05T
19:26:36+0000
1.717 km
极远距离
3.351228E-6 低风险 0.46
CDM_260906-000905-778305-950121
2026-09-06T
00:09:04+0000
2.293 km
极远距离
1.624322E-6 低风险 0.39
CDM_260829-045503-331805-950125
2026-08-29T
04:55:11+0000
2.626 km
极远距离
1.427914E-6 低风险 0.38
CDM_260905-175205-778305-950121
2026-09-05T
17:52:26+0000
2.989 km
极远距离
1.067297E-6 低风险 0.36